Showing default

DSAT, 42794

Orbit data source: Space-Track

DSAT, 42794 is a payload satellite owned by D-ORBIT (IT) in SSO that was launched on Fri, 23 Jun 2017 UTC via a PSLV-XL launch vehicle from the Sirharikota (SRI). Payload-class satellites include a variety of spacecraft equipped with specific instruments for various scientific and technological missions. These include communications satellites like Starlink; space stations such as the ISS; scientific satellites like the Hubble; Earth observation satellites from companies like Planet Labs, Umbra, and HawkEye 360; GPS; miniature CubeSats for education and research; and military/defense satellites.

Loading next visibility...
Identifier
42794, 2017-036AF
Orbit
SSO
Country
Flag of ITIT
Related business
Manufacturer
D-ORBIT
Mission
Non-operational Commercial Technology
Bus & Motor
CUBESAT 3U, Unknown motor
Mass
4.5 kg wet, 4.2 kg dry
Launch date (UTC)
2017-06-23 (8 years ago)
Launch vehicle
PSLV-XL
Launch site
Sirharikota (SRI)
Object type
Payload
Rocket body
Debris
Shape & HBR
Box, 0.1 m
Radar Cross Section
0.035 m², Small (<0.1 m²)

Expand to show TLE details & history
Last TLE update: 6 hours ago

TLE from 6 hours ago
0 DSAT
1 42794U 17036AF  25307.96206361  .00008809  00000-0  46032-3 0  9996
2 42794  97.5319 283.4975 0087226 219.7649 139.7168 15.12821784456754
Epoch: 2025-11-03T23:05Z
TLE epoch observation values (Epoch: 2025-11-03T23:05:22.295Z)
Latitude
-0.00006°
Longitude
-106.30131°
Altitude
576.855 km
Speed
7.547 km/s
True Right ascension
18h 53m 59s
True Declination
0° 00' 00"
Sunlit
Object was in daylight at epoch
Visualization orbit readout
Latitude
Unknown
Longitude
Unknown
Altitude
Unknown
Speed
Unknown
Apparent Right ascension
Unknown
Apparent Declination
Unknown
Sunlit
N/A
Visualization observer readout
Local Sidereal Time
01:14:37
Azimuth
Unknown
Elevation
Unknown
Doppler factor
Unknown
Orbital elements
Apogee altitude
584.789 km
Perigee altitude
464.37 km
Semi-major axis
6,902.717 km
Eccentricity
0.00872
Inclination
97.5319°
RAAN
283.4975°
Arg. of periapsis
219.7649°
True anomaly
140.35772°
Mean anomaly
139.7168°
Eccentric anomaly
140.03779°
Mean motion
3.78454 °/min
Orbital period
95.12 mins
BSTAR
0.00046032
Loading maneuver chart data...
Computing Atmospheric mass density...

Documentation

Showing up to 5 results
|